Regional Weather Roundup
Issued by NWS Mobile, AL

Home | Current Version | Previous Version | Text Only | Print | Product List | Glossary On
Versions: 1 2 3 4 5 6 7 8 9 10 11 12 13 14 15 16 17 18 19 20 21 22 23 24 25 26 27 28 29 30 31 32 33 34 35 36 37 38 39 40 41 42 43 44 45 46 47 48 49 50
135
ASUS44 KMOB 240212
RWRMOB
REGIONAL WEATHER ROUNDUP
NATIONAL WEATHER SERVICE MOBILE AL
900 PM CDT TUE AUG 23 2016

NOTE: "FAIR" INDICATES FEW OR NO CLOUDS BELOW 12,000 FEET WITH NO
      SIGNIFICANT WEATHER AND/OR OBSTRUCTIONS TO VISIBILITY.

  * THESE STATIONS ARE PART OF THE UNIVERSITY OF SOUTH ALABAMA
    MESONET AND ARE NOT UNDER NWS OR FAA QUALITY CONTROL.

ALZ061>064-240300-
COASTAL ALABAMA

CITY           SKY/WX    TMP DP  RH WIND       PRES   REMARKS
MOBILE REG APT PTCLDY    82  76  81 SW3       30.16R
BROOKLEY FIELD PTCLDY    83  76  79 W3        30.16R
USA CAMPUS*    NOT AVBL
DOG RIVER*     NOT AVBL


CITY           SKY/WX    TMP DP  RH WIND       PRES   REMARKS
MOUNT VERNON*  NOT AVBL
SARALAND*      NOT AVBL
BAY MINETTE*   NOT AVBL
LOXLEY*        NOT AVBL
ROBERTSDALE*   NOT AVBL
FAIRHOPE*      NOT AVBL
ELBERTA*       NOT AVBL
FOLEY*         NOT AVBL
GRAND BAY*     NOT AVBL
DAUPHIN ISLND* NOT AVBL
BON SCOUR NWR* NOT AVBL
GULF SHORES    PTCLDY    79  79 100 CALM      30.14S

$$

ALZ051>060-240300-
INTERIOR SOUTHWEST AND SOUTH CENTRAL ALABAMA

CITY           SKY/WX    TMP DP  RH WIND       PRES   REMARKS
GREENVILLE     CLEAR     82  76  81 CALM      30.17R
EVERGREEN      CLEAR     81  78  91 CALM      30.17R
CASTLEBERRY*   NOT AVBL
ATMORE*        NOT AVBL
DIXIE*         NOT AVBL
ANDALUSIA/OPP  CLEAR     85  76  74 CALM      30.16R
ANDALUSIA*     NOT AVBL
FLORALA APT    CLEAR     81  76  84 CALM      30.18R
FLORALA*       NOT AVBL

$$

FLZ001>006-240300-
WESTERN FLORIDA PANHANDLE

CITY           SKY/WX    TMP DP  RH WIND       PRES   REMARKS
PENSACOLA      CLOUDY    80  77  90 CALM      30.14S
NAS PENSACOLA  MOCLDY    79  77  94 CALM      30.13F
MILTON         PTCLDY    79  78  97 NW3       30.15S
WHTNG S FIELD  PTCLDY    82  80  94 W3        30.15R


CITY           SKY/WX    TMP DP  RH WIND       PRES   REMARKS
WALNUT HILL*   NOT AVBL
JAY*           NOT AVBL
DUKE FIELD     PTCLDY    80  76  89 CALM      30.15R
CRESTVIEW      CLOUDY    80  76  87 CALM      30.16R
VALPARAISO     MOCLDY    81  77  86 CALM      30.14R
DESTIN         PTCLDY    88  78  72 CALM      30.14R HX 101

$$

MSZ076-079-240300-
INTERIOR SOUTHEAST MISSISSIPPI

CITY           SKY/WX    TMP DP  RH WIND       PRES   REMARKS
LEAKESVILLE*   NOT AVBL
AGRICOLA*      NOT AVBL

$$

MARINE OBSERVATIONS

STATION/POSITION TIME  TEMP    WIND        PRES    WAVE
                       AIR SEA DIR/SP/G            HT/PER
                 (UTC) (F)     (DEG/KT/KT) (MB)    (FT/S)
PASCAGOULA       0100   87                 1020.4R
PETIT BOIS ISLND 0100   86                 1021.2R
GRAND BAY        0045   85      20/  4     1022.0R
KATRINA CUT      0100   86     250/  4     1021.0S
CEDAR POINT      0100   87     230/  5     1020.3S
E DAUPHIN ISLAND 0200   86     250/  2/  3 1020.4R
MIDDLE BAY LIGHT 0100   87     240/  6     1020.0F
USCG MOBILE BAY  0100   86 87              1021.1R
STATE DOCKS      0100   89 87              1020.4R
MEAHER PARK      0100   88     210/  2     1020.3R
WEEKS BAY        0000   81                   N/A
FORT MORGAN      0100   86                 1020.0R
12 S ORANGE BCH  0150   86 89   CALM  /  2 1020.6S   1
PENSACOLA BAY    0100   83 87              1020.8S
64 S DAUPHIN ISL 0100   87 91   90/  4/  6 1020.1R
67 S FORT MORGAN 0130   85      50/  4     1020.7R

$$

SELECTED LOCATIONS ACROSS THE REGION

CITY           SKY/WX    TMP DP  RH WIND       PRES   REMARKS
NEW ORLEANS    PTCLDY    87  75  67 SW8       30.15R HX  96
GULFPORT       CLEAR     81  77  88 N5        30.14R
PASCAGOULA AP  MOCLDY    81  81 100 CALM      30.15R
PASCAGOULA*    NOT AVBL
HATTIESBURG    MOCLDY    83  76  79 CALM      30.16R
LAUREL         CLEAR     79  73  83 CALM      30.18R
MERIDIAN       PTCLDY    80  75  84 CALM      30.17R
JACKSON        CLOUDY    79  74  84 CALM      30.16R
MONTGOMERY     CLEAR     85  72  65 CALM      30.17R
TROY           CLEAR     79  77  94 CALM      30.19R
KINSTON*       NOT AVBL
GENEVA*        NOT AVBL
ASHFORD*       NOT AVBL
DOTHAN         CLOUDY    78  73  84 NE16G25   30.25R THUNDER
PANAMA CITY    CLOUDY    82  73  74 NE9       30.16R

$$





USA.gov is the U.S. government's official web portal to all federal, state and local government web resources and services.